UAL185 KMSN-KORD

Flight info

Callsign UAL185
Flight time N/A
Altitude 19000
Route GARTT CHMPN FYTTE7
Aircraft B77W/H-SDE1E2E3FGHIJ2J3J4J5M1RWXY/LB1D1

Departure

Time 2026-05-08 14:24
Airport Dane County Regional Truax Field (KMSN)

Arrival

Time N/A
Airport Chicago O'Hare International Airport (KORD)
Time Latitude Longitude Altitude Speed Heading
2026-05-08 14:07 43.13486 -89.34486 865 ft 0 kts 281°
2026-05-08 14:17 43.13485 -89.34479 865 ft 2 kts 281°
2026-05-08 14:17 43.13483 -89.34466 865 ft 1 kts 281°
2026-05-08 14:17 43.13482 -89.34446 865 ft 2 kts 250°
2026-05-08 14:18 43.13490 -89.34429 865 ft 2 kts 219°
2026-05-08 14:18 43.13503 -89.34419 865 ft 2 kts 190°
2026-05-08 14:18 43.13509 -89.34418 865 ft 1 kts 181°
2026-05-08 14:18 43.13512 -89.34418 865 ft 0 kts 181°
2026-05-08 14:21 43.13485 -89.34421 865 ft 10 kts 185°
2026-05-08 14:21 43.13414 -89.34400 865 ft 9 kts 128°
2026-05-08 14:22 43.13414 -89.34309 866 ft 9 kts 89°
2026-05-08 14:22 43.13390 -89.34235 866 ft 8 kts 121°
2026-05-08 14:22 43.13384 -89.34162 867 ft 7 kts 67°
2026-05-08 14:22 43.13425 -89.34110 867 ft 8 kts 34°
2026-05-08 14:23 43.13484 -89.34060 866 ft 13 kts 30°
2026-05-08 14:23 43.13615 -89.33958 866 ft 38 kts 30°
2026-05-08 14:23 43.14080 -89.33606 866 ft 125 kts 29°
2026-05-08 14:23 43.15092 -89.32848 1141 ft 191 kts 30°
2026-05-08 14:24 43.16241 -89.31935 2347 ft 192 kts 30°
2026-05-08 14:24 43.17380 -89.31087 3313 ft 192 kts 30°
2026-05-08 14:24 43.18336 -89.29765 3986 ft 212 kts 64°
2026-05-08 14:24 43.18595 -89.27711 4700 ft 231 kts 97°
2026-05-08 14:25 43.18047 -89.25614 5479 ft 246 kts 129°
2026-05-08 14:25 43.16728 -89.24075 6244 ft 260 kts 156°
2026-05-08 14:25 43.14960 -89.23537 6958 ft 273 kts 185°
2026-05-08 14:25 43.13112 -89.24213 7818 ft 280 kts 210°
2026-05-08 14:26 43.11409 -89.25410 9019 ft 280 kts 212°
2026-05-08 14:26 43.09544 -89.26257 10102 ft 293 kts 191°
2026-05-08 14:26 43.07458 -89.26135 10839 ft 314 kts 176°
2026-05-08 14:26 43.05235 -89.25679 11593 ft 332 kts 175°
2026-05-08 14:27 43.02881 -89.25166 12351 ft 349 kts 175°
2026-05-08 14:27 43.00449 -89.24631 13122 ft 364 kts 175°
2026-05-08 14:27 42.97899 -89.24069 13994 ft 376 kts 175°